Location: *
(42.9017°N, 0.3819°E)
Time: 14:44:10
(UTC+00:00)

Daily predictions for brighter satellites

Satellite Brightness Start Highest point End
(mag) Time Altitude Azimuth Time Altitude Azimuth Time Altitude Azimuth
Timation 2 Rocket 4.1 18:21:02 10° SSW 18:27:39 76° ESE 18:34:00 10° NNE
Cosmos 1300 Rocket 3.5 18:28:24 10° S 18:32:43 85° E 18:37:03 10° N
COSMO-SKYMED 1 3.5 18:29:19 10° N 18:33:35 55° WNW 18:37:49 10° SSW
Cosmos 1743 4.2 18:30:34 10° SSW 18:34:14 42° WNW 18:37:56 10° N
COSMOS 2428 2.9 18:28:55 10° NNW 18:34:31 55° ENE 18:40:04 10° SE
NOAA 11 4.4 18:29:14 10° SSE 18:34:33 53° ENE 18:39:53 10° N
Cosmos 2322 3.8 18:29:52 10° NNW 18:35:39 85° WSW 18:41:22 10° SSE
Aureole 1 Rocket 3.2 18:30:45 10° NNW 18:35:52 58° ENE 18:39:44 10° SE
Cosmos 2251 Rocket 3.6 18:30:36 10° NNW 18:36:02 86° ENE 18:41:24 10° SSE
H-2A R/B 3.6 18:33:56 10° E 18:36:53 16° ENE 18:39:50 10° NNE
ISS -1.9 18:35:16 10° S 18:37:18 15° SE 18:39:17 10° E
Cosmos 2360 Rocket 3.3 18:33:46 10° NW 18:39:11 48° WSW 18:44:35 10° S
Cosmos 2151 Rocket 3.7 18:34:50 10° S 18:39:14 84° W 18:43:39 10° N
CZ-2D R/B 3.2 18:39:19 10° SSE 18:43:05 67° ENE 18:46:52 10° N
Cosmos 1939 Rocket 2.8 18:40:27 10° SSE 18:44:14 58° ENE 18:48:03 10° N
Lacrosse 5 rocket 2.8 18:47:20 10° SSE 18:49:15 14° ESE 18:49:55 13° ESE
Cosmos 2227 Rocket 3.3 18:48:33 10° SSE 18:52:45 22° E 18:56:59 10° NE
Cosmos 1544 3.0 18:49:14 10° S 18:52:46 63° E 18:56:21 10° NNE
SAR-Lupe-2 4.0 18:49:49 10° NNE 18:53:11 37° E 18:56:31 10° SSE
Cosmos 2219 3.6 18:48:44 10° S 18:54:01 39° ESE 18:59:19 10° NE
Cosmos 2074 Rocket 4.1 18:49:29 10° N 18:55:45 82° W 19:01:57 10° S
Meteor 2-9 Rocket 4.5 18:51:21 10° SSW 18:57:07 76° W 19:02:47 10° N
ARGOS 4.3 18:53:49 13° ESE 18:57:26 25° ENE 19:01:41 10° N
DELTA 2 R/B (1) 4.4 18:52:29 10° SW 18:57:26 33° SSE 19:01:13 16° E
Cosmos 2341 Rocket 4.5 18:54:07 10° N 18:59:57 39° ENE 19:05:42 10° SE
Cosmos 1842 4.2 18:59:06 10° NNW 19:02:57 51° W 19:06:46 10° S
CZ-2C R/B 4.0 18:58:52 10° NNE 19:03:05 40° E 19:07:15 10° S
Cosmos 389 Rocket 3.5 19:00:13 10° NNE 19:03:10 26° ENE 19:04:29 20° ESE
Cosmos 2297 Rocket 3.0 18:58:38 10° SSE 19:03:22 28° ESE 19:08:08 10° NE
Meteor 1-12 Rocket 4.4 19:00:12 10° SSW 19:05:56 81° W 19:11:39 10° N
GEOS 3 Rocket 3.6 19:01:21 11° SE 19:06:15 72° NE 19:11:22 10° NNW
Ariane Rocket 3.1 19:03:28 10° S 19:08:30 78° WSW 19:13:37 10° NNW
FREGAT/IRIS 2.3 19:11:15 16° SSE 19:13:20 65° ENE 19:16:08 10° N
Cosmos 405 Rocket 3.4 19:11:16 14° SSE 19:13:49 30° E 19:17:05 10° NNE
NOSS 3-4 (A) 3.9 19:07:18 10° NNW 19:14:20 71° NE 19:20:46 16° SE
NOSS 3-4 (C) 3.9 19:07:24 10° NNW 19:14:26 70° NE 19:20:50 16° SE
Cosmos 614 Rocket 4.4 19:10:24 10° N 19:15:23 43° ENE 19:18:31 21° SE
EO 1 Delta rocket 4.5 19:09:49 10° SSE 19:16:44 67° ENE 19:22:11 10° N
Cosmos 2056 Rocket 3.9 19:13:08 10° S 19:18:14 44° ESE 19:23:21 10° NNE
HJ-1C 3.7 19:15:00 10° S 19:18:20 66° W 19:21:43 10° NNW
Okean 1 Rocket 3.3 19:14:18 10° SSW 19:18:36 73° W 19:22:59 10° N
Cosmos 2154 Rocket 4.0 19:13:42 10° N 19:19:56 88° W 19:26:09 10° S
Cosmos 407 Rocket 3.6 19:17:00 10° N 19:22:00 51° ENE 19:25:02 22° SE
Cosmos 2333 Rocket 2.8 19:22:18 10° NNW 19:27:53 58° WSW 19:33:28 10° S
Meteor 1-4 Rocket 2.9 19:25:23 10° N 19:28:45 40° ENE 19:29:05 39° E
Resurs 01 Rocket 2.8 19:29:23 24° ENE 19:29:41 25° ENE 19:33:17 10° NNE
Cosmos 1624 Rocket 4.0 19:25:03 10° S 19:30:07 56° ESE 19:35:12 10° NNE
CZ-2C R/B 4.0 19:29:59 26° E 19:31:25 30° ENE 19:36:07 10° N
In-Cosmos 22 4.1 19:26:16 10° N 19:31:34 59° ENE 19:35:25 19° SSE
SL-8 Rocket 4.2 19:26:05 10° N 19:32:05 49° ENE 19:35:53 22° SE
Cosmos 2237 Rocket 2.2 19:29:37 10° NNW 19:35:19 65° ENE 19:38:28 27° SE
ADEOS Rocket 3.6 19:28:59 10° NNE 19:36:13 52° E 19:43:44 10° S
BREEZE-M DEB (TANK) 3.9 19:26:35 10° WNW 19:40:09 76° NNE 19:41:49 37° E
Cosmos 1674 4.2 19:37:58 10° NNE 19:39:57 22° NE 19:39:57 22° NE
Cosmos 1954 Rocket 4.5 19:38:52 10° N 19:43:47 40° ENE 19:44:49 36° E
Cosmos 1980 3.6 19:39:01 10° NNW 19:44:43 82° ENE 19:47:47 28° SSE
SPOT 3 Rocket 3.4 19:41:13 18° SSE 19:45:09 86° ENE 19:50:20 10° NNW
USA 186 2.2 19:44:30 28° S 19:46:06 64° W 19:49:31 10° NNW
Cosmos 1140 Rocket 3.6 19:41:20 10° NNW 19:46:26 55° ENE 19:47:56 40° ESE
Meteor 2-5 Rocket 3.8 19:45:33 10° N 19:51:18 59° ENE 19:53:38 35° SE
Cosmos 1892 Rocket 3.5 19:50:17 10° N 19:54:46 87° W 19:56:35 35° S
NOSS 0 Rocket 4.3 19:48:47 10° NNW 19:54:56 64° WSW 19:59:31 18° S
Cosmos 1707 4.1 19:52:46 10° NNW 19:56:26 39° W 20:00:05 10° SSW
ATLAS 2AS CENTAUR R/B 3.6 19:50:32 10° NW 19:57:44 49° WSW 20:03:36 14° S
ASTEX 1 4.2 19:53:01 10° N 19:57:45 51° W 20:02:28 10° SSW
Cosmos 1371 Rocket 4.4 19:56:00 10° SSW 20:01:16 67° WNW 20:06:38 10° NNE
Meteor 1-22 Rocket 4.5 20:01:13 39° SE 20:03:05 53° E 20:09:01 10° NNE
SJ-6B 3.7 20:02:27 24° SSW 20:04:40 50° W 20:08:41 10° NNW
Okean 1-7 Rocket 3.9 20:00:21 10° NNW 20:04:46 66° W 20:06:45 32° SSW
SL-16 R/B 2.5 20:00:33 10° NNW 20:06:00 45° ENE 20:06:31 44° ENE
ERBS 4.4 20:06:23 10° NNW 20:08:14 21° N 20:08:14 21° N
Cosmos 2219 Rocket 4.1 20:05:41 10° NW 20:10:14 26° WSW 20:14:46 10° SSW
ISS -2.1 20:10:22 10° WSW 20:12:15 31° WSW 20:12:15 31° WSW
H-2A R/B 2.2 20:13:51 37° S 20:15:43 67° WSW 20:20:44 10° NNW
Cosmos 676 Rocket 3.8 20:11:01 10° NNW 20:16:18 82° ENE 20:16:51 71° SE
Cosmos 2082 3.6 20:13:31 10° SSW 20:19:12 72° ESE 20:24:56 10° NNE
CZ-2C R/B 4.3 20:15:50 10° NNE 20:17:55 21° NE 20:17:55 21° NE
Lacrosse 5 rocket 3.1 20:24:16 10° WSW 20:25:40 22° WSW 20:25:40 22° WSW
Cosmos 1544 Rocket 4.3 20:32:52 48° WSW 20:33:32 53° W 20:37:56 10° N
Cosmos 1455 Rocket 4.2 20:31:39 21° SW 20:34:09 42° WNW 20:38:24 10° N
Cosmos 2227 Rocket 2.8 20:30:50 10° SW 20:36:21 55° WNW 20:41:57 10° NNE
ARGOS 3.9 20:35:20 32° SSW 20:37:22 47° W 20:42:35 10° NNW
DELTA 2 R/B (1) 4.2 20:37:54 10° WSW 20:42:00 45° SW 20:42:00 45° SW
Terra 4.3 20:49:58 12° NNE 20:49:58 12° NNE 20:50:34 10° NNE
Cosmos 2297 Rocket 3.3 20:41:48 10° SW 20:47:10 43° WNW 20:52:35 10° NNE
Nadezhda 3 Rocket 4.4 20:57:56 51° NNE 20:57:56 51° NNE 21:02:30 10° N
Resurs 01 Rocket 3.4 21:06:58 30° WNW 21:06:58 30° WNW 21:10:02 10° NNW
CZ-2C R/B 4.3 21:11:03 37° W 21:11:08 37° W 21:16:10 10° NNW
Cosmos 1821 Rocket 4.4 21:09:54 10° N 21:14:38 55° NNW 21:14:38 55° NNW
Cosmos 2237 Rocket 4.3 21:14:58 10° WNW 21:18:46 19° W 21:20:19 17° WSW
SL-16 R/B 4.1 21:45:08 10° NW 21:48:25 25° WNW 21:48:25 25° WNW
CZ-2C R/B 4.5 21:56:10 10° N 21:59:26 28° NNW 21:59:26 28° NNW
CZ-4C R/B 4.3 22:59:59 10° NNW 23:03:40 30° N 23:03:40 30° N
